Location: Gleizolles
(44.4833°N, 6.7667°E)
Time: 03:20:35
(UTC+00:00)

Vanguard 1 Rocket - Pass Details

Date: 30 June 2024
Orbit: 650 x 4219 km, 34.3° (Epoch: 15 July)

Event Time Altitude Azimuth Distance (km) Brightness Sun altitude
Rises 21:22:48 0° 197° (SSW) 3,881 - -15.8°
Reaches altitude 10° 21:25:50 10° 181° (S) 3,297 - -16.1°
Exits shadow 21:30:58 21° 142° (SE) 3,155 9.5 -16.6°
Maximum altitude 21:31:57 22° 134° (SE) 3,255 9.6 -16.6°
Drops below altitude 10° 21:41:10 10° 92° (E) 5,222 11.0 -17.4°
Sets 21:47:50 0° 80° (E) 6,949 11.7 -18.0°
